Laurinburg-Maxton, NC

11:55 AM EDT on March 25, 2017 (GMT -0400)
Laurinburg-Maxton

Weather History for KMEB - April, 2013

Change the Weather History Date:

Saturday, April 6, 2013

  Actual Average (KHFF) Record (KHFF)
Temperature  
Mean Temperature 52 °F -  
Max Temperature 69 °F 69 °F 80 °F (2001)
Min Temperature 37 °F 49 °F 28 °F (2016)
Degree Days  
Heating Degree Days 12    
Growing Degree Days 2 (Base 50)    
Moisture  
Dew Point 38 °F    
Average Humidity 78    
Maximum Humidity 100    
Minimum Humidity 27    
Precipitation  
Precipitation 0.01 in - - ()
Sea Level Pressure  
Sea Level Pressure 30.12 in    
Wind  
Wind Speed 2 mph (East)    
Max Wind Speed 17 mph    
Max Gust Speed 18 mph    
Visibility 6 miles    
Events Fog    
Averages and records for this station are not official NWS values.
T = Trace of Precipitation, MM = Missing Value Source: NWS Daily Summary

Daily Weather History Graph

Daily Weather History Graph

Search for Another Location

Airport or City:

Trip Planner

Search our weather history database for the weather conditions in past years. The results will help you decide how hot, cold, wet, or windy it might be!

Date:

Astronomy

Apr. 06, 2013 Rise Set
Actual Time 6:57 AM EDT 7:42 PM EDT
Civil Twilight 6:31 AM EDT 8:08 PM EDT
Nautical Twilight 6:01 AM EDT 8:38 PM EDT
Astronomical Twilight 5:30 AM EDT 9:09 PM EDT
Moon 4:31 AM EDT (4/6) 4:17 PM EDT (4/6)
Length of Visible Light 13h 36m
Length of Day
12h 45m
Waning Crescent, 15% of the Moon is Illuminated
Apr 6
Waning Crescent
Apr 10
New
Apr 18
First Quarter
Apr 25
Full
May 2
Last Quarter

Hourly Weather History & Observations

Time (EDT) Temp. Windchill Dew Point Humidity Pressure Visibility Wind Dir Wind Speed Gust Speed Precip Events Conditions
12:02 AM 42.8 °F - 42.8 °F 100% 30.03 in 1.8 mi Calm Calm - N/A   Clear
12:14 AM 42.8 °F - 41.0 °F 93% 30.04 in 3.0 mi Calm Calm - N/A   Clear
12:21 AM 41.0 °F - 41.0 °F 100% 30.04 in 1.5 mi Calm Calm - N/A   Clear
12:27 AM 42.8 °F - 42.8 °F 100% 30.04 in 0.5 mi Calm Calm - N/A Fog Fog
12:41 AM 42.8 °F - 42.8 °F 100% 30.04 in 1.0 mi Calm Calm - N/A   Clear
12:48 AM 42.8 °F - 41.0 °F 93% 30.04 in 0.5 mi Calm Calm - N/A Fog Fog
12:52 AM 42.1 °F - 41.0 °F 96% 30.04 in 0.2 mi Calm Calm - N/A Fog Fog
1:06 AM 41.0 °F - 39.2 °F 93% 30.04 in 1.0 mi Calm Calm - N/A   Clear
1:14 AM 42.8 °F - 41.0 °F 93% 30.04 in 3.0 mi Calm Calm - N/A   Clear
1:46 AM 42.8 °F - 41.0 °F 93% 30.05 in 1.8 mi Calm Calm - N/A   Clear
1:52 AM 41.0 °F - 39.9 °F 96% 30.05 in 1.0 mi Calm Calm - N/A   Clear
1:58 AM 41.0 °F - 39.2 °F 93% 30.05 in 3.0 mi Calm Calm - N/A   Clear
2:22 AM 41.0 °F - 39.2 °F 93% 30.06 in 1.5 mi Calm Calm - N/A   Clear
2:32 AM 39.2 °F - 37.4 °F 93% 30.06 in 3.0 mi Calm Calm - N/A   Clear
2:52 AM 39.9 °F - 39.0 °F 97% 30.06 in 1.8 mi Calm Calm - N/A   Clear
3:04 AM 39.2 °F - 39.2 °F 100% 30.06 in 0.8 mi Calm Calm - N/A   Clear
3:10 AM 39.2 °F - 37.4 °F 93% 30.06 in 2.0 mi Calm Calm - N/A   Clear
3:23 AM 39.2 °F - 37.4 °F 93% 30.06 in 10.0 mi Calm Calm - N/A   Clear
3:52 AM 39.0 °F - 37.9 °F 96% 30.07 in 6.0 mi Calm Calm - N/A   Clear
4:11 AM 37.4 °F - 37.4 °F 100% 30.07 in 1.8 mi Calm Calm - N/A   Clear
4:17 AM 37.4 °F - 35.6 °F 93% 30.07 in 0.5 mi Calm Calm - N/A Fog Fog
4:24 AM 37.4 °F - 37.4 °F 100% 30.07 in 1.0 mi Calm Calm - N/A   Clear
4:29 AM 37.4 °F - 37.4 °F 100% 30.08 in 4.0 mi Calm Calm - N/A   Clear
4:52 AM 37.9 °F - 37.0 °F 97% 30.08 in 8.0 mi Calm Calm - N/A   Clear
5:01 AM 37.4 °F - 37.4 °F 100% 30.08 in 1.2 mi Calm Calm - 0.01 in   Clear
5:04 AM 37.4 °F - 37.4 °F 100% 30.08 in 0.5 mi Calm Calm - 0.01 in Fog Fog
5:13 AM 37.4 °F - 35.6 °F 93% 30.09 in 1.0 mi Calm Calm - 0.01 in   Clear
5:21 AM 37.4 °F - 35.6 °F 93% 30.09 in 10.0 mi Calm Calm - 0.01 in   Clear
5:52 AM 37.0 °F - 35.1 °F 93% 30.10 in 10.0 mi Calm Calm - 0.01 in   Clear
6:52 AM 39.0 °F 34.8 °F 35.1 °F 86% 30.13 in 10.0 mi North 5.8 mph - N/A   Clear
7:52 AM 45.0 °F 40.1 °F 37.9 °F 76% 30.16 in 10.0 mi NE 9.2 mph - N/A   Clear
8:52 AM 51.1 °F - 37.9 °F 61% 30.19 in 10.0 mi ENE 10.4 mph - N/A   Clear
9:52 AM 55.0 °F - 36.0 °F 49% 30.22 in 10.0 mi ENE 15.0 mph - N/A   Clear
10:52 AM 57.9 °F - 35.1 °F 42% 30.23 in 10.0 mi East 17.3 mph - N/A   Clear
11:52 AM 62.1 °F - 35.1 °F 37% 30.24 in 10.0 mi ENE 15.0 mph 18.4 mph N/A   Clear
12:52 PM 63.0 °F - 35.1 °F 35% 30.24 in 10.0 mi East 10.4 mph - N/A   Clear
1:52 PM 66.0 °F - 34.0 °F 30% 30.23 in 10.0 mi East 8.1 mph - N/A   Clear
2:52 PM 64.9 °F - 33.1 °F 31% 30.22 in 10.0 mi Variable 5.8 mph - N/A   Clear
3:52 PM 68.0 °F - 33.1 °F 27% 30.20 in 10.0 mi ENE 10.4 mph - N/A   Clear
4:52 PM 66.9 °F - 32.0 °F 27% 30.18 in 10.0 mi Variable 4.6 mph - N/A   Clear
5:52 PM 66.9 °F - 35.1 °F 31% 30.18 in 10.0 mi SE 9.2 mph - N/A   Clear
6:52 PM 64.9 °F - 36.0 °F 34% 30.19 in 10.0 mi East 4.6 mph - N/A   Clear
7:52 PM 60.1 °F - 39.0 °F 46% 30.21 in 10.0 mi East 4.6 mph - N/A   Clear
8:52 PM 57.0 °F - 37.9 °F 49% 30.22 in 10.0 mi East 6.9 mph - N/A   Clear
9:52 PM 52.0 °F - 39.0 °F 61% 30.25 in 10.0 mi South 6.9 mph - N/A   Clear
10:52 PM 52.0 °F - 42.1 °F 69% 30.26 in 10.0 mi SSE 8.1 mph - N/A   Clear
11:52 PM 51.1 °F - 41.0 °F 68% 30.27 in 10.0 mi SSE 13.8 mph - N/A   Clear